This demonstration page uses our WeatherBlox Daily Observations layout. Learn more.

Left ArrowRight Arrow

39.51506, -84.39828

Hourly Observations for April 14, 2021

Temp ( °F °C ) Dew Point ( °F °C ) Humidity (%) Winds ( mph kmh ) Pressure ( in mb ) Visibility ( mi km ) Precip ( " mm )
12:15 am 00:15 Mostly Cloudy 49 9.2 44 6.7 85 85 N 3 6 30.14 1021 10 16.0934 0 0
12:35 am 00:35 Clear 50 10.1 41 5.1 71 71 NW 5 7 30.13 1020 10 16.0934 0 0
12:55 am 00:55 Clear 49 9.4 41 4.9 74 74 Calm 30.13 1020 10 16.0934 0 0
1:15 am 01:15 Clear 46 7.6 42 5.3 86 86 ENE 5 7 30.13 1020 10 16.0934 0 0
1:35 am 01:35 Clear 49 9.6 40 4.4 70 70 ENE 3 6 30.12 1020 10 16.0934 0 0
1:55 am 01:55 Clear 51 10.6 38 3.1 60 60 NNE 5 7 30.12 1020 10 16.0934 0 0
2:15 am 02:15 Clear 51 10.5 37 2.9 60 60 NNE 7 11 30.13 1020 10 16.0934 0 0
2:35 am 02:35 Clear 50 10.2 37 2.8 60 60 N 8 13 30.13 1020 10 16.0934 0 0
2:55 am 02:55 Clear 51 10.4 37 2.5 58 58 NNE 6 9 30.14 1021 10 16.0934 0 0
3:15 am 03:15 Mostly Cloudy 51 10.3 37 2.6 59 59 N 5 7 30.14 1021 10 16.0934 0 0
3:35 am 03:35 Mostly Cloudy 50 10.2 37 2.5 59 59 NNE 6 9 30.15 1021 10 16.0934 0 0
3:55 am 03:55 Cloudy 50 9.9 37 3 62 62 NNE 6 9 30.14 1021 10 16.0934 0 0
4:15 am 04:15 Cloudy 50 9.8 38 3.1 63 63 NNE 8 13 30.14 1021 10 16.0934 0 0
4:35 am 04:35 Cloudy 49 9.7 38 3.2 64 64 NNE 6 9 30.14 1021 10 16.0934 0 0
4:55 am 04:55 Cloudy 49 9.6 38 3.3 65 65 NNE 6 9 30.14 1021 10 16.0934 0 0
5:15 am 05:15 Cloudy 49 9.5 38 3.6 67 67 NE 7 11 30.14 1021 10 16.0934 0 0
5:35 am 05:35 Cloudy 49 9.5 39 3.8 68 68 NNE 6 9 30.13 1020 10 16.0934 0 0
5:55 am 05:55 Cloudy 49 9.4 39 3.7 68 68 N 5 7 30.14 1021 10 16.0934 0 0
6:15 am 06:15 Cloudy 49 9.3 39 3.7 68 68 N 5 7 30.15 1021 10 16.0934 0 0
6:35 am 06:35 Cloudy 49 9.2 39 3.7 69 69 N 6 9 30.16 1021 10 16.0934 0 0
6:55 am 06:55 Cloudy 48 9 39 3.9 71 71 N 3 6 30.16 1021 10 16.0934 0 0
7:15 am 07:15 Cloudy 48 8.9 39 4 72 72 Calm 30.16 1021 10 16.0934 0 0
7:35 am 07:35 Cloudy 48 8.9 39 4 72 72 NE 3 6 30.17 1022 10 16.0934 0 0
7:55 am 07:55 Sunny 48 8.9 39 4 72 72 NNE 3 6 30.17 1022 10 16.0934 0 0
8:15 am 08:15 Mostly Cloudy 48 8.8 40 4.7 76 76 Calm 30.17 1022 10 16.0934 0 0
8:35 am 08:35 Partly Cloudy 49 9.3 41 5 75 75 Calm 30.17 1022 10 16.0934 0 0
8:55 am 08:55 Partly Cloudy 50 9.8 39 4 67 67 Calm 30.17 1022 10 16.0934 0 0
9:15 am 09:15 Partly Cloudy 50 10 39 4 67 67 Calm 30.16 1021 10 16.0934 0 0
9:35 am 09:35 Sunny 52 10.9 39 3.9 62 62 SSE 5 7 30.16 1021 10 16.0934 0 0
9:55 am 09:55 Sunny 52 11.1 38 3.3 59 59 S 3 6 30.16 1021 10 16.0934 0 0
10:15 am 10:15 Sunny 53 11.4 39 4 61 61 SSE 6 9 30.16 1021 10 16.0934 0 0
10:35 am 10:35 Sunny 53 11.8 38 3.4 57 57 SSE 6 9 30.15 1021 10 16.0934 0 0
10:55 am 10:55 Sunny 55 12.5 40 4.5 58 58 SSE 6 9 30.14 1021 10 16.0934 0 0
11:15 am 11:15 Sunny 55 12.7 39 3.8 55 55 SE 5 7 30.14 1021 10 16.0934 0 0
11:35 am 11:35 Sunny 56 13.1 39 4 54 54 S 6 9 30.13 1020 10 16.0934 0 0
11:55 am 11:55 Sunny 56 13.3 38 3.4 51 51 S 7 11 30.13 1020 10 16.0934 0 0
12:15 pm 12:15 Sunny 57 13.8 37 2.5 47 47 SW 8 13 30.12 1020 10 16.0934 0 0
12:35 pm 12:35 Sunny 57 13.8 37 2.9 48 48 SSW 7 11 30.11 1020 10 16.0934 0 0
12:55 pm 12:55 Sunny 58 14.2 37 2.7 46 46 SSW 9 15 30.1 1019 10 16.0934 0 0
1:15 pm 13:15 Sunny 58 14.5 38 3.1 47 47 SSW 7 11 30.09 1019 10 16.0934 0 0
1:35 pm 13:35 Partly Cloudy 59 14.8 38 3.2 46 46 SSW 6 9 30.08 1019 10 16.0934 0 0
1:55 pm 13:55 Partly Cloudy 60 15.8 39 3.7 45 45 W 9 15 30.06 1018 10 16.0934 0 0
2:15 pm 14:15 Sunny 61 15.9 39 4 45 45 WSW 12 19 30.05 1018 10 16.0934 0 0
2:35 pm 14:35 Mostly Cloudy 59 15.1 37 2.9 44 44 W 6 9 30.05 1017 10 16.0934 0 0
2:55 pm 14:55 Cloudy 59 15.1 37 2.8 44 44 SW 8 13 30.04 1017 10 16.0934 0 0
3:15 pm 15:15 Mostly Cloudy 60 15.7 39 3.9 46 46 WSW 6 9 30.02 1017 10 16.0934 0 0
3:35 pm 15:35 Mostly Cloudy 62 16.9 38 3.5 41 41 SW 14 22 29.99 1016 10 16.0934 0 0
3:55 pm 15:55 Partly Cloudy 62 16.6 37 2.9 40 40 W 10 17 29.98 1015 10 16.0934 0 0
4:15 pm 16:15 Sunny 62 16.4 37 2.7 40 40 WNW 14 22 29.98 1015 10 16.0934 0 0
4:35 pm 16:35 Mostly Cloudy 64 17.5 39 3.8 40 40 WNW 10 17 29.98 1015 10 16.0934 0 0
4:55 pm 16:55 Sunny 63 17.4 37 2.5 37 37 W 16 26 29.98 1015 10 16.0934 0 0
5:15 pm 17:15 Sunny 64 17.6 37 2.8 37 37 W 10 17 29.98 1015 10 16.0934 0 0
5:35 pm 17:35 Sunny 63 17.2 35 1.6 35 35 W 10 17 29.97 1015 10 16.0934 0 0
5:55 pm 17:55 Sunny 63 17.1 34 1.2 34 34 WNW 14 22 29.97 1015 10 16.0934 0 0
6:15 pm 18:15 Sunny 62 16.9 33 0.4 33 33 W 13 20 29.97 1015 10 16.0934 0 0
6:35 pm 18:35 Sunny 62 16.6 32 -0.1 32 32 WNW 14 22 29.97 1015 10 16.0934 0 0
6:55 pm 18:55 Sunny 61 16.1 31 -0.3 33 33 WNW 12 19 29.97 1015 10 16.0934 0 0
7:15 pm 19:15 Sunny 60 15.6 33 0.3 36 36 NW 12 19 29.97 1015 10 16.0934 0 0
7:35 pm 19:35 Sunny 59 14.9 33 0.3 37 37 NW 12 19 29.97 1015 10 16.0934 0 0
7:55 pm 19:55 Sunny 58 14.3 32 -0.2 37 37 NW 10 17 29.97 1015 10 16.0934 0 0
8:15 pm 20:15 Clear 56 13.6 32 -0.1 39 39 NW 12 19 29.97 1015 10 16.0934 0 0
8:35 pm 20:35 Clear 55 12.7 32 0 42 42 NW 7 11 29.97 1015 10 16.0934 0 0
8:55 pm 20:55 Clear 54 12 33 0.6 46 46 NNW 7 11 29.97 1015 10 16.0934 0 0
9:15 pm 21:15 Clear 53 11.6 33 0.6 47 47 NNW 8 13 29.99 1016 10 16.0934 0 0
9:35 pm 21:35 Clear 52 11.1 33 0.7 49 49 NNW 6 9 30 1016 10 16.0934 0 0
9:55 pm 21:55 Clear 52 11.2 33 0.4 48 48 NNW 8 13 30 1016 10 16.0934 0 0
10:15 pm 22:15 Clear 51 10.3 33 0.6 51 51 NNW 5 7 30.01 1016 10 16.0934 0 0
10:35 pm 22:35 Clear 49 9.5 33 0.6 54 54 Calm 30.01 1016 10 16.0934 0 0
10:55 pm 22:55 Clear 46 7.8 33 0.8 62 62 Calm 30.01 1016 10 16.0934 0 0
11:15 pm 23:15 Clear 43 6.1 38 3.6 84 84 Calm 30.01 1016 10 16.0934 0 0
11:35 pm 23:35 Clear 44 6.4 38 3.4 81 81 Calm 30.01 1016 10 16.0934 0 0
11:55 pm 23:55 Clear 43 6 39 4 87 87 Calm 30 1016 10 16.0934 0 0

Powered by AerisWeather